Weather History for Three Rivers, MI

Change the Weather History Date:

Tuesday, June 17, 2014

  Actual Average Record
Temperature  
Mean Temperature 80 °F -  
Max Temperature 88 °F 79 °F 93 °F (1952)
Min Temperature 72 °F 55 °F 41 °F (1980)
Cooling Degree Days 15    
Growing Degree Days 30 (Base 50)    
Moisture  
Dew Point 70 °F    
Average Humidity 74    
Maximum Humidity 90    
Minimum Humidity 58    
Precipitation  
Precipitation 0.00 in - - ()
Sea Level Pressure  
Sea Level Pressure 29.93 in    
Wind  
Wind Speed 8 mph (SW)    
Max Wind Speed 23 mph    
Max Gust Speed 33 mph    
Visibility 10 miles    
Events Rain    
Averages and records for this station are not official NWS values.
T = Trace of Precipitation, MM = Missing Value Source: NWS Daily Summary

Daily Weather History Graph

Daily Weather History Graph

Search for Another Location

Airport:

Trip Planner

Search our weather history database for the weather conditions in past years. The results will help you decide how hot, cold, wet, or windy it might be!

Date:

Astronomy

Jun. 17, 2014 Rise Set
Actual Time 6:06 AM EDT 9:20 PM EDT
Civil Twilight 5:32 AM EDT 9:54 PM EDT
Nautical Twilight 4:47 AM EDT 10:39 PM EDT
Astronomical Twilight 3:54 AM EDT 11:32 PM EDT
Moon 12:07 AM EDT (6/17) 11:24 AM EDT (6/17)
Length of Visible Light 16h 22m
Length of Day
15h 13m
Waning Gibbous, 73% of the Moon is Illuminated
Jun 17
Waning Gibbous
Jun 19
Last Quarter
Jun 27
New
Jul 5
First Quarter
Jul 12
Full

Hourly Weather History & Observations

Time (EDT) Temp. Heat Index Dew Point Humidity Pressure Visibility Wind Dir Wind Speed Gust Speed Precip Events Conditions
12:15 AM 74.1 °F - 66.6 °F 77% 30.00 in 10.0 mi Calm Calm - N/A   Clear
12:35 AM 72.9 °F - 67.1 °F 82% 29.98 in 10.0 mi South 3.5 mph - N/A   Clear
12:54 AM 74.3 °F - 68.9 °F 83% 29.97 in 10.0 mi South 4.6 mph - N/A   Clear
1:15 AM 74.5 °F - 69.3 °F 84% 29.98 in 10.0 mi South 3.5 mph - N/A   Clear
1:35 AM 73.9 °F - 69.3 °F 85% 29.98 in 10.0 mi South 3.5 mph - N/A   Clear
1:55 AM 74.1 °F - 69.8 °F 86% 29.98 in 10.0 mi South 3.5 mph - N/A   Clear
2:15 AM 74.3 °F - 69.8 °F 86% 29.97 in 10.0 mi South 4.6 mph - N/A   Clear
2:34 AM 73.9 °F - 69.8 °F 87% 29.97 in 10.0 mi South 5.8 mph - N/A   Clear
2:55 AM 73.9 °F - 70.0 °F 87% 29.97 in 10.0 mi South 5.8 mph - N/A   Clear
3:15 AM 73.9 °F - 70.0 °F 87% 29.97 in 10.0 mi South 6.9 mph - N/A   Clear
3:34 AM 74.3 °F - 70.2 °F 87% 29.97 in 10.0 mi South 5.8 mph - N/A   Clear
3:55 AM 73.9 °F - 70.2 °F 88% 29.98 in 10.0 mi SSW 6.9 mph - N/A   Clear
4:15 AM 73.8 °F - 70.2 °F 88% 29.98 in 10.0 mi SSW 4.6 mph - N/A   Clear
4:35 AM 73.6 °F - 70.3 °F 90% 29.98 in 7.0 mi South 5.8 mph - N/A   Clear
4:55 AM 73.8 °F - 70.5 °F 90% 29.98 in 7.0 mi South 5.8 mph - N/A   Clear
5:14 AM 73.9 °F - 70.3 °F 88% 29.98 in 10.0 mi SSW 6.9 mph - N/A   Clear
5:35 AM 74.1 °F - 70.3 °F 88% 29.97 in 7.0 mi South 5.8 mph - N/A Rain Light Rain
5:55 AM 74.1 °F - 70.2 °F 87% 29.95 in 10.0 mi South 8.1 mph - N/A   Clear
6:14 AM 74.5 °F - 69.8 °F 85% 29.95 in 10.0 mi South 9.2 mph - N/A   Clear
6:35 AM 75.2 °F - 69.3 °F 82% 29.94 in 10.0 mi SSW 10.4 mph - N/A   Clear
6:55 AM 75.2 °F - 69.1 °F 81% 29.94 in 10.0 mi SSW 13.8 mph 17.3 mph N/A   Clear
7:14 AM 75.7 °F - 69.3 °F 80% 29.94 in 10.0 mi SSW 15.0 mph 20.7 mph N/A   Clear
7:35 AM 76.3 °F - 69.1 °F 78% 29.95 in 10.0 mi SW 12.7 mph 18.4 mph N/A   Clear
7:55 AM 76.5 °F - 68.9 °F 77% 29.95 in 10.0 mi SSW 10.4 mph 21.9 mph N/A   Clear
8:14 AM 77.2 °F - 68.9 °F 76% 29.94 in 10.0 mi SW 16.1 mph 20.7 mph N/A   Clear
8:55 AM 78.8 °F - 69.8 °F 74% 29.94 in 10.0 mi SW 16.1 mph 27.6 mph N/A   Clear
9:15 AM 78.6 °F - 69.4 °F 73% 29.94 in 10.0 mi SW 17.3 mph 27.6 mph N/A   Scattered Clouds
9:35 AM 78.6 °F - 70.0 °F 75% 29.92 in 10.0 mi SSW 18.4 mph 25.3 mph N/A   Scattered Clouds
9:55 AM 79.0 °F - 70.2 °F 74% 29.92 in 10.0 mi SW 13.8 mph 20.7 mph N/A   Clear
10:15 AM 79.5 °F - 70.2 °F 73% 29.92 in 10.0 mi SW 15.0 mph 28.8 mph N/A   Clear
10:35 AM 79.5 °F - 70.2 °F 73% 29.92 in 10.0 mi SW 20.7 mph 33.4 mph N/A   Scattered Clouds
10:55 AM 79.2 °F - 70.3 °F 74% 29.91 in 10.0 mi SW 19.6 mph 31.1 mph N/A   Mostly Cloudy
11:15 AM 79.3 °F - 70.7 °F 75% 29.89 in 10.0 mi SW 15.0 mph 32.2 mph N/A   Scattered Clouds
11:35 AM 79.7 °F - 70.9 °F 74% 29.85 in 10.0 mi SSW 18.4 mph 28.8 mph N/A   Scattered Clouds
11:55 AM 80.1 °F 83.4 °F 70.7 °F 73% 29.84 in 10.0 mi SSW 23.0 mph 31.1 mph N/A   Clear
12:15 PM 81.0 °F 84.9 °F 71.2 °F 72% 29.85 in 10.0 mi SW 16.1 mph 25.3 mph N/A   Clear
12:35 PM 81.7 °F 86.0 °F 71.6 °F 71% 29.89 in 10.0 mi WSW 15.0 mph 20.7 mph N/A   Scattered Clouds
12:55 PM 83.3 °F 88.7 °F 72.1 °F 69% 29.90 in 10.0 mi WSW 11.5 mph 19.6 mph N/A   Scattered Clouds
1:15 PM 84.2 °F 89.9 °F 72.3 °F 67% 29.89 in 10.0 mi SW 16.1 mph 20.7 mph N/A   Clear
1:35 PM 84.7 °F 91.0 °F 72.5 °F 67% 29.90 in 10.0 mi SW 11.5 mph 25.3 mph N/A   Clear
1:54 PM 85.1 °F 91.5 °F 72.5 °F 66% 29.90 in 10.0 mi WSW 12.7 mph 20.7 mph N/A   Scattered Clouds
2:15 PM 85.6 °F 91.5 °F 71.6 °F 63% 29.90 in 10.0 mi West 16.1 mph 20.7 mph N/A   Mostly Cloudy
2:35 PM 86.5 °F 92.9 °F 72.1 °F 62% 29.90 in 10.0 mi West 15.0 mph 21.9 mph N/A   Mostly Cloudy
2:54 PM 86.4 °F 92.6 °F 71.8 °F 62% 29.90 in 10.0 mi West 15.0 mph 21.9 mph N/A   Mostly Cloudy
3:15 PM 87.6 °F 95.2 °F 73.0 °F 62% 29.90 in 10.0 mi West 16.1 mph 21.9 mph N/A   Mostly Cloudy
3:35 PM 88.0 °F 95.6 °F 73.0 °F 61% 29.90 in 10.0 mi West 11.5 mph 18.4 mph N/A   Scattered Clouds
3:54 PM 87.3 °F 94.9 °F 73.2 °F 63% 29.90 in 10.0 mi West 12.7 mph 21.9 mph N/A   Clear
4:15 PM 87.8 °F 95.6 °F 73.2 °F 62% 29.90 in 10.0 mi West 11.5 mph - N/A   Clear
4:35 PM 87.8 °F 96.1 °F 73.8 °F 63% 29.90 in 10.0 mi WNW 15.0 mph 21.9 mph N/A   Clear
4:54 PM 87.4 °F 95.3 °F 73.6 °F 63% 29.91 in 10.0 mi West 13.8 mph 19.6 mph N/A   Clear
5:15 PM 87.1 °F 94.5 °F 73.2 °F 63% 29.91 in 10.0 mi West 10.4 mph - N/A   Clear
5:34 PM 86.7 °F 93.3 °F 72.5 °F 62% 29.91 in 10.0 mi NW 10.4 mph 17.3 mph N/A   Scattered Clouds
5:55 PM 85.8 °F 91.5 °F 71.2 °F 62% 29.92 in 10.0 mi NW 10.4 mph - N/A   Clear
6:15 PM 85.5 °F 90.8 °F 71.1 °F 62% 29.92 in 10.0 mi WNW 8.1 mph 16.1 mph N/A   Clear
6:34 PM 85.1 °F 90.1 °F 70.7 °F 62% 29.92 in 10.0 mi WNW 11.5 mph - N/A   Scattered Clouds
6:55 PM 84.7 °F 89.7 °F 71.1 °F 63% 29.92 in 10.0 mi NW 8.1 mph - N/A   Clear
7:15 PM 85.1 °F 88.8 °F 68.9 °F 58% 29.92 in 10.0 mi NW 10.4 mph - N/A   Scattered Clouds
7:34 PM 83.7 °F 86.7 °F 68.2 °F 59% 29.92 in 10.0 mi NW 8.1 mph - N/A   Clear
7:55 PM 83.7 °F 86.7 °F 68.2 °F 59% 29.93 in 10.0 mi NW 6.9 mph - N/A   Clear
8:15 PM 82.8 °F 86.0 °F 68.5 °F 62% 29.93 in 10.0 mi NW 4.6 mph - N/A   Clear
8:34 PM 82.4 °F 84.8 °F 66.6 °F 59% 29.93 in 10.0 mi NW 4.6 mph - N/A   Clear
8:55 PM 80.4 °F 83.2 °F 68.4 °F 67% 29.94 in 10.0 mi Calm Calm - N/A   Scattered Clouds
9:14 PM 79.3 °F - 68.7 °F 70% 29.93 in 10.0 mi Calm Calm - N/A   Scattered Clouds
9:35 PM 79.3 °F - 68.0 °F 68% 29.94 in 10.0 mi Calm Calm - N/A   Scattered Clouds
9:55 PM 78.4 °F - 67.6 °F 69% 29.96 in 10.0 mi Calm Calm - N/A   Mostly Cloudy
10:15 PM 77.4 °F - 69.3 °F 76% 29.96 in 10.0 mi Calm Calm - N/A   Mostly Cloudy
10:55 PM 76.3 °F - 68.9 °F 78% 29.98 in 10.0 mi Calm Calm - N/A   Clear
11:14 PM 74.5 °F - 69.3 °F 84% 29.97 in 10.0 mi Calm Calm - N/A   Clear
11:35 PM 74.5 °F - 69.1 °F 83% 29.97 in 10.0 mi Calm Calm - N/A   Clear
11:55 PM 74.7 °F - 69.1 °F 83% 29.97 in 10.0 mi Calm Calm - N/A   Clear